FW4441 Weather Reports


Display with metric or nautical units.
time (UTC)temp
F
wind
direction
speed
MPH
gust
MPH
rain 1hr
in
rain 24hr
in
rain mn
in
humidity
%
barometer
mb
20260831181647 75 11 3.0 12.0 0.00 0.00 0.00 49 1010.8
20260831180043 73 282 2.0 6.0 0.00 0.00 0.00 56 1011.1
20260831173031 69 286 2.0 4.0 0.00 0.00 0.00 59 1011.5
20260831171533 68 267 1.0 3.0 0.00 0.00 0.00 60 1011.7
20260831164530 65 270 1.0 3.0 0.00 0.00 0.00 65 1012.1
20260831163030 63 305 1.0 3.0 0.00 0.00 0.00 69 1012.2
20260831161608 61 292 1.0 3.0 0.00 0.00 0.00 73 1012.5
20260831154532 59 96 0.0 1.0 0.00 0.00 0.00 77 1012.5
20260831153031 57 90 0.0 2.0 0.00 0.00 0.00 81 1012.6
20260831151530 55 90 0.0 1.0 0.00 0.00 0.00 85 1012.6
20260831150030 52 90 0.0 1.0 0.00 0.00 0.00 88 1012.5
20260831144531 48 90 0.0 2.0 0.00 0.00 0.00 89 1012.3
20260831143028 47 90 1.0 2.0 0.00 0.00 0.00 90 1012.3
20260831141532 47 90 0.0 2.0 0.00 0.00 0.00 89 1012.2
20260831140032 47 90 0.0 0.0 0.00 0.00 0.00 88 1012.1
20260831134532 47 90 0.0 2.0 0.00 0.00 0.00 88 1012.1
20260831124530 48 202 0.0 0.0 0.00 0.00 0.00 85 1012.1
20260831123031 49 170 0.0 0.0 0.00 0.00 0.00 84 1012.0
20260831121530 50 157 0.0 1.0 0.00 0.00 0.00 84 1012.0
20260831120028 50 130 1.0 3.0 0.00 0.00 0.00 83 1012.1
20260831114531 50 151 1.0 2.0 0.00 0.00 0.00 83 1012.1
20260831110031 50 180 1.0 2.0 0.00 0.00 0.00 83 1012.2
20260831104530 50 180 0.0 1.0 0.00 0.00 0.00 82 1012.3
20260831103029 51 173 1.0 3.0 0.00 0.00 0.00 80 1012.3
20260831101529 52 22 1.0 3.0 0.00 0.00 0.00 80 1012.2
20260831100028 52 22 1.0 2.0 0.00 0.00 0.00 80 1012.3
20260831094531 52 22 0.0 1.0 0.00 0.00 0.00 81 1012.5
20260831093107 52 22 0.0 1.0 0.00 0.00 0.00 79 1012.6
20260831091607 52 22 0.0 1.0 0.00 0.00 0.00 78 1012.7
20260831090033 53 13 2.0 4.0 0.00 0.00 0.00 77 1012.6
20260831084528 53 282 0.0 2.0 0.00 0.00 0.00 77 1012.8
20260831080030 53 270 0.0 1.0 0.00 0.00 0.00 75 1013.0
20260831074534 54 270 0.0 0.0 0.00 0.00 0.00 75 1013.0
20260831073032 54 270 0.0 0.0 0.00 0.00 0.00 74 1013.1
20260831070028 55 271 0.0 2.0 0.00 0.00 0.00 72 1013.2
20260831063031 56 1 4.0 6.0 0.00 0.00 0.00 71 1013.2
20260831061607 56 22 4.0 7.0 0.00 0.00 0.00 70 1013.3
20260831060031 57 22 4.0 5.0 0.00 0.00 0.00 70 1013.4
20260831054531 57 22 3.0 5.0 0.00 0.00 0.00 69 1013.4
20260831053107 58 24 1.0 3.0 0.00 0.00 0.00 68 1013.5
20260831051607 59 45 1.0 2.0 0.00 0.00 0.00 66 1013.5
20260831050030 60 45 0.0 0.0 0.00 0.00 0.00 64 1013.5
20260831044531 61 45 0.0 1.0 0.00 0.00 0.00 64 1013.5
20260831043029 62 44 1.0 4.0 0.00 0.00 0.00 63 1013.4
20260831041537 61 28 1.0 5.0 0.00 0.00 0.00 63 1013.4
20260831040031 62 31 4.0 7.0 0.00 0.00 0.00 63 1013.4
20260831034617 62 29 5.0 8.0 0.00 0.00 0.00 62 1013.2
20260831031531 63 14 5.0 8.0 0.00 0.00 0.00 58 1013.0
20260831030029 64 28 4.0 8.0 0.00 0.00 0.00 57 1013.0
20260831024530 65 358 2.0 5.0 0.00 0.00 0.00 54 1013.0
20260831023105 67 330 3.0 6.0 0.00 0.00 0.00 53 1012.9
20260831021605 68 307 2.0 5.0 0.00 0.00 0.00 52 1012.9
20260831014530 70 249 3.0 7.0 0.00 0.00 0.00 48 1012.9
20260831013028 72 231 6.0 12.0 0.00 0.00 0.00 46 1013.0
20260831011531 74 237 5.0 12.0 0.00 0.00 0.00 43 1013.0
20260831010031 75 246 6.0 12.0 0.00 0.00 0.00 42 1013.0
20260831004532 76 245 6.0 12.0 0.00 0.00 0.00 42 1013.1
20260831001529 77 246 6.0 13.0 0.00 0.00 0.00 40 1013.1
20260831000032 78 251 7.0 13.0 0.00 0.00 0.00 40 1013.2
20260830233030 77 250 7.0 16.0 0.00 0.00 0.00 39 1013.6
20260830231533 76 257 10.0 21.0 0.00 0.00 0.00 39 1013.7
20260830230030 76 274 8.0 18.0 0.00 0.00 0.00 41 1013.9
20260830223145 77 292 7.0 15.0 0.00 0.00 0.00 42 1014.4
20260830221531 77 287 7.0 14.0 0.00 0.00 0.00 43 1014.6
20260830220106 75 280 8.0 14.0 0.00 0.00 0.00 44 1014.7
20260830214531 75 286 9.0 18.0 0.00 0.00 0.00 44 1015.0
20260830211530 74 276 8.0 17.0 0.00 0.00 0.00 45 1015.2
20260830210034 74 280 10.0 19.0 0.00 0.00 0.00 46 1015.2
20260830203030 74 275 10.0 18.0 0.00 0.00 0.00 46 1015.7
20260830201609 74 267 8.0 17.0 0.00 0.00 0.00 46 1015.9
20260830200031 74 272 7.0 13.0 0.00 0.00 0.00 47 1016.1
20260830194605 72 271 6.0 12.0 0.00 0.00 0.00 48 1016.2
20260830190032 73 270 6.0 13.0 0.00 0.00 0.00 50 1016.7
20260830184529 71 270 6.0 11.0 0.00 0.00 0.00 51 1016.9